Hourly Data Report for July 07, 2009

PITT MEADOWS CS
BRITISH COLUMBIA

49°12'29.964" N
122°41'24.076" W
5.00 m
1106178
71775
WMM

Download Data

Hourly Data (July 2009)
Hourly Data Report for July 7, 2009
TIME
LST
Temp Definition
°C
Dew Point Definition
°C
Rel Hum Definition
%
Precip. Amount Definition
mm

Wind Dir Definition
10's deg

Wind Spd Definition
km/h
Visibility Definition
km
Stn Press Definition
kPa
Hmdx Definition


Wind Chill Definition


Weather Definition


00:00 14.3 9.6 73   14 6   101.56     LegendNANA
01:00 13.8 10.3 79   11 4   101.54     LegendNANA
02:00 14.0 9.4 74   14 6   101.51     LegendNANA
03:00 13.5 9.6 77   7 4   101.48     LegendNANA
04:00 13.3 10.1 81   11 6   101.48     LegendNANA
05:00 13.1 10.6 85   11 7   101.47     LegendNANA
06:00 13.0 10.5 85   12 7   101.47     LegendNANA
07:00 13.0 10.7 86   11 7   101.48     LegendNANA
08:00 13.1 10.5 84   13 11   101.50     LegendNANA
09:00 13.1 10.5 84   11 7   101.50     LegendNANA
10:00 13.6 11.2 85   14 6   101.51     LegendNANA
11:00 13.4 11.3 87   14 9   101.53     LegendNANA
12:00 13.5 12.1 91   7 4   101.55     LegendNANA
13:00 13.7 11.6 87   22 2   101.56     LegendNANA
14:00 13.9 11.7 87   14 4   101.57     LegendNANA
15:00 14.3 11.9 85   15 4   101.57     LegendNANA
16:00 14.3 12.4 88     0   101.55     LegendNANA
17:00 13.8 11.5 86   22 4   101.53     LegendNANA
18:00 13.7 11.9 89   7 2   101.52     LegendNANA
19:00 13.4 12.2 92     0   101.52     LegendNANA
20:00 13.1 12.1 94   3 4   101.49     LegendNANA
21:00 12.9 12.1 95     0   101.50     LegendNANA
22:00 12.9 12.1 95   3 4   101.49     LegendNANA
23:00 12.7 12.2 97   3 2   101.48     LegendNANA

Notes on Data Quality.

Legend

  • E = Estimated
  • M = Missing
  • NA = Not Available*
  • [empty] = Indicates an unobserved value
Date modified: